TimeCST,TemperatureF,Dew PointF,Humidity,Sea Level PressureIn,VisibilityMPH,Wind Direction,Wind SpeedMPH,Gust SpeedMPH,PrecipitationIn,Events,Conditions,WindDirDegrees,DateUTC
12:55 AM,57.4,28.4,33,30.08,10.0,ESE,16.1,-,N/A,,Overcast,120,2013-02-20 06:55:00
1:55 AM,56.1,35.8,46,30.06,10.0,East,11.5,-,N/A,,Mostly Cloudy,100,2013-02-20 07:55:00
2:55 AM,55.9,40.8,57,30.06,10.0,SE,11.5,-,N/A,,Overcast,140,2013-02-20 08:55:00
3:55 AM,55.2,43.3,64,30.03,10.0,ESE,10.4,-,N/A,,Mostly Cloudy,120,2013-02-20 09:55:00
4:33 AM,53.6,44.6,72,30.02,10.0,East,11.5,-,N/A,,Overcast,90,2013-02-20 10:33:00
4:42 AM,53.6,44.6,72,30.01,10.0,East,10.4,-,N/A,,Mostly Cloudy,80,2013-02-20 10:42:00
4:55 AM,53.8,44.2,70,30.01,10.0,East,9.2,-,N/A,,Mostly Cloudy,80,2013-02-20 10:55:00
4:59 AM,53.6,44.6,72,30.02,10.0,East,11.5,-,N/A,,Mostly Cloudy,80,2013-02-20 10:59:00
5:55 AM,53.6,43.0,67,30.00,10.0,East,9.2,-,N/A,,Overcast,90,2013-02-20 11:55:00
5:56 AM,53.6,42.8,67,29.99,10.0,East,9.2,-,N/A,,Overcast,80,2013-02-20 11:56:00
6:05 AM,53.6,42.8,67,29.99,10.0,East,9.2,-,N/A,,Mostly Cloudy,80,2013-02-20 12:05:00
6:37 AM,53.6,42.8,67,29.96,10.0,East,12.7,-,N/A,,Mostly Cloudy,90,2013-02-20 12:37:00
6:55 AM,53.2,42.6,67,29.96,10.0,East,9.2,-,N/A,,Overcast,90,2013-02-20 12:55:00
7:19 AM,53.6,42.8,67,29.94,10.0,East,11.5,-,N/A,,Overcast,100,2013-02-20 13:19:00
7:55 AM,53.6,45.3,74,29.96,10.0,ENE,5.8,-,N/A,,Overcast,60,2013-02-20 13:55:00
8:38 AM,55.4,48.2,77,29.96,10.0,East,10.4,-,N/A,,Overcast,100,2013-02-20 14:38:00
8:55 AM,56.3,49.3,77,29.98,10.0,East,6.9,-,N/A,,Overcast,90,2013-02-20 14:55:00
9:55 AM,57.0,51.1,81,30.00,10.0,Variable,3.5,-,N/A,,Overcast,0,2013-02-20 15:55:00
10:15 AM,57.2,51.8,82,30.00,10.0,ENE,5.8,-,N/A,,Light Drizzle,60,2013-02-20 16:15:00
10:42 AM,57.2,55.4,94,29.97,9.0,East,6.9,-,N/A,Rain,Light Rain,90,2013-02-20 16:42:00
10:55 AM,56.7,55.4,96,29.97,9.0,East,8.1,-,0.00,Rain,Light Rain,90,2013-02-20 16:55:00
11:09 AM,57.2,57.2,100,29.96,10.0,East,11.5,-,N/A,,Overcast,100,2013-02-20 17:09:00
11:37 AM,57.2,57.2,100,29.94,10.0,ESE,11.5,-,N/A,,Overcast,110,2013-02-20 17:37:00
11:55 AM,58.6,58.5,99,29.92,10.0,ESE,16.1,-,0.00,,Overcast,110,2013-02-20 17:55:00
12:55 PM,60.8,59.7,96,29.88,10.0,ESE,13.8,-,N/A,,Overcast,120,2013-02-20 18:55:00
1:31 PM,62.6,60.8,94,29.85,10.0,ESE,13.8,-,N/A,,Overcast,120,2013-02-20 19:31:00
1:41 PM,62.6,60.8,94,29.83,10.0,ESE,17.3,-,N/A,,Overcast,120,2013-02-20 19:41:00
1:55 PM,62.6,61.2,95,29.82,10.0,ESE,13.8,-,N/A,,Overcast,120,2013-02-20 19:55:00
2:55 PM,63.1,62.6,98,29.79,10.0,ESE,10.4,-,N/A,,Overcast,120,2013-02-20 20:55:00
3:55 PM,63.5,63.3,99,29.77,10.0,East,11.5,-,N/A,,Overcast,100,2013-02-20 21:55:00
4:55 PM,64.8,64.4,99,29.75,10.0,East,12.7,-,N/A,,Overcast,100,2013-02-20 22:55:00
5:30 PM,66.2,64.4,94,29.73,10.0,ESE,15.0,-,N/A,,Overcast,110,2013-02-20 23:30:00
5:55 PM,64.8,64.4,99,29.73,10.0,East,11.5,-,N/A,,Overcast,90,2013-02-20 23:55:00
6:05 PM,64.4,64.4,100,29.73,10.0,East,11.5,-,N/A,,Overcast,90,2013-02-21 00:05:00
6:17 PM,64.4,62.6,94,29.73,10.0,East,12.7,-,N/A,,Overcast,90,2013-02-21 00:17:00
6:26 PM,62.6,62.6,100,29.73,10.0,East,11.5,-,N/A,,Overcast,80,2013-02-21 00:26:00
6:29 PM,62.6,62.6,100,29.73,10.0,East,11.5,-,N/A,,Overcast,90,2013-02-21 00:29:00
6:55 PM,62.8,62.8,100,29.73,10.0,East,13.8,-,N/A,,Overcast,100,2013-02-21 00:55:00
7:03 PM,62.6,62.6,100,29.73,10.0,East,13.8,-,N/A,,Overcast,100,2013-02-21 01:03:00
7:13 PM,62.6,62.6,100,29.72,10.0,East,13.8,-,N/A,,Mostly Cloudy,100,2013-02-21 01:13:00
7:14 PM,62.6,62.6,100,29.72,10.0,East,13.8,-,N/A,,Mostly Cloudy,100,2013-02-21 01:14:00
7:55 PM,64.8,64.8,100,29.71,10.0,East,10.4,-,N/A,,Overcast,90,2013-02-21 01:55:00
7:57 PM,64.4,64.4,100,29.71,10.0,East,11.5,-,N/A,,Overcast,90,2013-02-21 01:57:00
8:04 PM,64.4,64.4,100,29.71,10.0,East,12.7,-,N/A,,Overcast,100,2013-02-21 02:04:00
8:13 PM,64.4,64.4,100,29.71,10.0,ESE,10.4,-,N/A,,Overcast,110,2013-02-21 02:13:00
8:31 PM,66.2,66.2,100,29.70,10.0,SE,17.3,-,N/A,,Overcast,140,2013-02-21 02:31:00
8:55 PM,68.0,67.5,98,29.68,10.0,SE,18.4,24.2,N/A,,Overcast,140,2013-02-21 02:55:00
9:48 PM,68.0,68.0,100,29.68,10.0,SSE,17.3,27.6,N/A,,Scattered Clouds,150,2013-02-21 03:48:00
9:55 PM,68.5,67.5,96,29.68,10.0,SSE,18.4,27.6,N/A,,Scattered Clouds,150,2013-02-21 03:55:00
10:15 PM,68.0,68.0,100,29.67,10.0,SSE,18.4,-,N/A,,Mostly Cloudy,150,2013-02-21 04:15:00
10:52 PM,68.0,68.0,100,29.67,10.0,SSE,20.7,-,N/A,,Scattered Clouds,150,2013-02-21 04:52:00
10:55 PM,68.7,67.8,97,29.66,10.0,SSE,19.6,25.3,N/A,,Scattered Clouds,150,2013-02-21 04:55:00
11:32 PM,68.0,68.0,100,29.65,10.0,SSE,19.6,29.9,N/A,,Mostly Cloudy,150,2013-02-21 05:32:00
11:41 PM,68.0,68.0,100,29.65,10.0,SSE,21.9,29.9,N/A,,Scattered Clouds,150,2013-02-21 05:41:00
11:43 PM,68.0,68.0,100,29.65,10.0,SSE,21.9,29.9,N/A,,Mostly Cloudy,150,2013-02-21 05:43:00
11:55 PM,68.9,67.8,96,29.65,10.0,SSE,23.0,27.6,N/A,,Mostly Cloudy,150,2013-02-21 05:55:00
11:56 PM,68.0,68.0,100,29.65,10.0,SSE,21.9,27.6,N/A,,Scattered Clouds,150,2013-02-21 05:56:00